Location: B?dimalle
(17.1788°N, 80.5377°E)
Time: 06:48:40
(UTC+00:00)

Vanguard 2 - Visible Passes

Search period start: 18 February 2026 00:00
Search period end: 28 February 2026 00:00
Orbit: 553 x 2897 km, 32.9° (Epoch: 17 February)

Date Brightness Start Highest point End Pass type
(mag) Time Alt. Az. Time Alt. Az. Time Alt. Az.
18 Feb 8.8 00:26:10 11° WNW 00:30:33 23° NNW 00:34:11 10° NNE visible
18 Feb 9.0 22:36:41 40° NE 22:36:41 40° NE 22:39:55 10° NE visible
19 Feb 9.1 00:38:46 10° WNW 00:42:43 18° NNW 00:45:52 10° NNE visible
19 Feb 8.8 22:48:05 41° NNE 22:48:05 41° NNE 22:51:46 10° NE visible
20 Feb 8.9 22:59:24 37° N 22:59:24 37° N 23:03:36 10° NE visible
21 Feb 9.0 23:10:42 32° NNW 23:10:42 32° NNW 23:15:24 10° NE visible
22 Feb 9.3 23:21:55 26° NNW 23:22:28 26° NNW 23:27:13 10° NE visible
23 Feb 11.8 16:51:48 10° S 16:52:46 11° S 16:52:46 11° S visible
23 Feb 10.7 21:32:10 13° NE 21:32:10 13° NE 21:32:38 10° NE visible
23 Feb 9.5 23:33:06 21° NW 23:34:42 22° NNW 23:39:07 10° NNE visible
24 Feb 11.8 17:02:07 10° SSW 17:03:37 13° SSW 17:03:37 13° SSW visible
24 Feb 10.5 21:43:18 17° NE 21:43:18 17° NE 21:44:30 10° NE visible
24 Feb 9.6 23:44:13 16° NW 23:47:02 20° NNW 23:51:08 10° NNE visible
25 Feb 11.6 15:11:29 10° SSE 15:13:36 10° SSE 15:13:36 10° SSE visible
25 Feb 11.7 17:12:53 10° SSW 17:14:31 13° SSW 17:14:31 13° SSW visible
25 Feb 10.2 21:54:25 20° NE 21:54:25 20° NE 21:56:23 10° NE visible
25 Feb 9.6 23:55:20 12° NW 23:59:27 19° N 00:03:18 10° NE visible
26 Feb 11.5 15:18:20 10° S 15:24:35 15° SSE 15:24:35 15° SSE visible
26 Feb 11.8 17:23:56 10° SSW 17:25:30 13° SSW 17:25:30 13° SSW visible
26 Feb 10.1 22:05:29 24° NNE 22:05:29 24° NNE 22:08:17 10° NE visible
27 Feb 9.6 00:06:56 10° NW 00:11:53 19° N 00:15:39 10° NE visible
27 Feb 11.3 15:27:53 10° S 15:35:37 20° SSE 15:35:37 20° SSE visible
27 Feb 11.8 17:35:16 10° SW 17:36:33 13° SW 17:36:33 13° SW visible
27 Feb 9.9 22:16:32 26° NNE 22:16:32 26° NNE 22:20:16 10° NE visible
